This is the latest recevied weather packets stored in our database for station/object DB0LHR-6. If no packets are shown the sender has not sent any weather packets the latest 10 day(s).
| Time | Temp. | Humidity | Pressure | Rain* | Wind** | Luminosity | Snow |
|---|---|---|---|---|---|---|---|
| 1778088676 | 11.11° C | 93% | 1008 hPa | 0 mm | - | - | - |
| 1778087776 | 11.11° C | 92% | 1008 hPa | 0 mm | - | - | - |
| 1778086876 | 11.11° C | 90% | 1008 hPa | 0 mm | - | - | - |
| 1778085976 | 11.67° C | 89% | 1008 hPa | 0 mm | - | - | - |
| 1778085076 | 11.67° C | 89% | 1008 hPa | 0 mm | - | - | - |
| 1778084176 | 11.67° C | 89% | 1008 hPa | 0 mm | - | - | - |
| 1778083276 | 11.67° C | 89% | 1008 hPa | 0 mm | - | - | - |
| 1778082376 | 12.22° C | 89% | 1008 hPa | 0 mm | - | - | - |
| 1778081476 | 12.22° C | 89% | 1008 hPa | 0 mm | - | - | - |
| 1778080576 | 12.78° C | 89% | 1008 hPa | 0 mm | - | - | - |
| 1778079676 | 12.22° C | 87% | 1008 hPa | 0 mm | - | - | - |
| 1778078776 | 12.78° C | 86% | 1008 hPa | 0 mm | - | - | - |
| 1778077876 | 12.78° C | 82% | 1008 hPa | 0 mm | - | - | - |
| 1778076976 | 12.78° C | 78% | 1008 hPa | 0 mm | - | - | - |
| 1778076076 | 13.33° C | 74% | 1007 hPa | 0 mm | - | - | - |
| 1778075176 | 13.89° C | 76% | 1007 hPa | 0 mm | - | - | - |
| 1778074276 | 13.89° C | 78% | 1007 hPa | 0 mm | - | - | - |
| 1778073376 | 14.44° C | 81% | 1007 hPa | 0 mm | - | - | - |
| 1778072476 | 14.44° C | 78% | 1007 hPa | 0 mm | - | - | - |
| 1778071576 | 15° C | 71% | 1007 hPa | 0 mm | - | - | - |
| 1778070676 | 15.56° C | 70% | 1007 hPa | 0 mm | - | - | - |
| 1778069776 | 16.11° C | 70% | 1007 hPa | 0 mm | - | - | - |
| 1778068876 | 16.67° C | 63% | 1006 hPa | 0 mm | - | - | - |
| 1778067976 | 16.67° C | 60% | 1006 hPa | 0 mm | - | - | - |
| 1778067076 | 17.78° C | 56% | 1006 hPa | 0 mm | - | - | - |
* Rain latest 24 hours (hover to see other rain measurements)
** Current wind speed in m/s (hover to see current wind gust speed)